GALAXY 31 (G-31)

Last updated on Tue Jul 01 2025 00:02:49 GMT+0000 (Coordinated Universal Time)

1 54243U 22153A 25181.61893133 .00000013 00000+0 00000+0 0 9994 2 54243 0.0142 71.1485 0000297 61.2545 248.3306 1.00272172 3601
UTC large
Height (km)
Speed (km/s)
/
Latitude / Longitude
Inclination (degrees)
Orbital Period (minutes)
Azimuth
Elevation
Range (km)
Doppler Factor

Next 0 passes for location: London (51.5072 / 0.1276)

Sorry there are no passes over London.